Location: Karcze
(52.0945°N, 22.4786°E)
Time: 23:28:05
(UTC+00:00)

Transit 4A - Pass Details

Date: 29 July 2021
Orbit: 871 x 974 km, 66.8° (Epoch: 18 September)

Event Time Altitude Azimuth Distance (km) Brightness Sun altitude
Exits shadow 01:38:54 - 264° (W) 3,250 10.3 -8.9°
Reaches altitude 10° 01:41:05 10° 273° (W) 2,532 9.8 -8.6°
Maximum altitude 01:46:06 29° 333° (NNW) 1,564 9.3 -8.1°
Drops below altitude 10° 01:51:07 10° 32° (NNE) 2,531 11.7 -7.5°
Sets 01:53:58 0° 44° (NE) 3,476 13.6 -7.2°
